Find Starlink 32491

NORAD ID: 62043 Int'l Des: 2024-216 Owner: SPXS Country: US Constellation: starlink operational
LEOCIRCULAR

当前视图

正在加载3D地球...

About Starlink 32491

Starlink 32491 (NORAD 62043) is a starlink constellation satellite (v2 mini) launched Nov 21, 2024 by SPXS of US. It operates in LEO, CIRCULAR orbit with a mass of 730.00 kg.

即将过境

Passes for default location (London). Set your location on the main map for personalized predictions.

高度历史

Loading altitude history...

两行轨道根数

1 62043U 24216M 26264.28999065 .00026965 00000-0 98550-3 0 9996
2 62043 43.0009 239.1569 0002215 273.8544 86.2054 15.27589925103700
Epoch: Sep 21, 2026 • Age: 14 hours

当前状态

高度 493.6 km
远地点 / 近地点 N/A
速度 7.62 km/s
星下点 -39.90°S, 169.29°E
发射日期 Nov 21, 2024
运行时间 1.8 years
类型 internet

技术详情

分类 Payload
质量 730.00 kg
干质量 700.00 kg
长度 0.30 m
跨度 29.00 m
形状 ? Box + pan
制造商 SPXS
平台类型 Starlink V2M
阶段状态 In Orbit
所有者/国家 SPXS/US

Most Searched